Glenwood, MN

3:49 PM CDT on October 22, 2017 (GMT -0500)
Glenwood Municipal

Weather History for KGHW - January, 2014

Change the Weather History Date:

Saturday, January 18, 2014

  Actual Average Record
Temperature  
Mean Temperature 16 °F -  
Max Temperature 24 °F 20 °F 42 °F (1981)
Min Temperature 10 °F 2 °F -35 °F (1967)
Degree Days  
Heating Degree Days 48    
Moisture  
Dew Point 11 °F    
Average Humidity 86    
Maximum Humidity 93    
Minimum Humidity 68    
Precipitation  
Precipitation 0.02 in - - ()
Sea Level Pressure  
Sea Level Pressure 29.72 in    
Wind  
Wind Speed 14 mph (WNW)    
Max Wind Speed 22 mph    
Max Gust Speed 26 mph    
Visibility 8 miles    
Events Snow    
Averages and records for this station are not official NWS values.
T = Trace of Precipitation, MM = Missing Value Source: NWS Daily Summary

Daily Weather History Graph

Daily Weather History Graph

Search for Another Location

Airport or City:

Trip Planner

Search our weather history database for the weather conditions in past years. The results will help you decide how hot, cold, wet, or windy it might be!

Date:

Astronomy

Jan. 18, 2014 Rise Set
Actual Time 7:56 AM CST 5:07 PM CST
Civil Twilight 7:23 AM CST 5:40 PM CST
Nautical Twilight 6:46 AM CST 6:17 PM CST
Astronomical Twilight 6:11 AM CST 6:52 PM CST
Moon 8:01 PM CST (1/18) 8:46 AM CST (1/18)
Length of Visible Light 10h 17m
Length of Day
9h 11m
Waning Gibbous, 94% of the Moon is Illuminated
Jan 18
Waning Gibbous
Jan 23
Last Quarter
Jan 30
New
Feb 6
First Quarter
Feb 14
Full

Hourly Weather History & Observations

Time (CST) Temp. Windchill Dew Point Humidity Pressure Visibility Wind Dir Wind Speed Gust Speed Precip Events Conditions
12:13 AM 12.2 °F -3.1 °F 10.4 °F 92% 29.57 in 4.0 mi SE 13.8 mph - N/A Snow Light Snow
12:34 AM 12.2 °F -3.1 °F 10.4 °F 92% 29.54 in 2.5 mi SE 13.8 mph - N/A Snow Light Snow
12:53 AM 12.2 °F -4.3 °F 10.4 °F 92% 29.52 in 2.0 mi SE 16.1 mph - N/A Snow Light Snow
1:13 AM 12.2 °F -3.1 °F 10.4 °F 92% 29.52 in 1.5 mi SE 13.8 mph - N/A Snow Light Snow
1:33 AM 14.0 °F -0.8 °F 10.4 °F 86% 29.49 in 1.0 mi SE 13.8 mph - N/A Snow Snow
1:53 AM 14.0 °F -2.0 °F 12.2 °F 93% 29.47 in 1.2 mi SE 16.1 mph 19.6 mph 0.01 in Snow Light Snow
2:14 AM 14.0 °F -2.0 °F 12.2 °F 93% 29.46 in 2.5 mi SE 16.1 mph - N/A Snow Light Snow
2:33 AM 15.8 °F -0.2 °F 12.2 °F 86% 29.45 in 1.5 mi SE 17.3 mph - 0.01 in Snow Light Snow
2:53 AM 15.8 °F 0.9 °F 12.2 °F 86% 29.45 in 1.5 mi SE 15.0 mph - 0.01 in Snow Light Snow
3:13 AM 15.8 °F 2.7 °F 12.2 °F 86% 29.44 in 2.5 mi SE 11.5 mph - N/A Snow Light Snow
3:33 AM 15.8 °F 2.7 °F 12.2 °F 86% 29.44 in 3.0 mi ESE 11.5 mph - N/A Snow Light Snow
3:54 AM 15.8 °F 2.7 °F 12.2 °F 86% 29.43 in 1.5 mi ESE 11.5 mph - N/A Snow Light Snow
4:13 AM 15.8 °F 2.7 °F 12.2 °F 86% 29.43 in 1.5 mi East 11.5 mph - N/A Snow Light Snow
4:33 AM 15.8 °F 2.7 °F 12.2 °F 86% 29.43 in 1.8 mi East 11.5 mph - N/A Snow Light Snow
4:54 AM 15.8 °F 2.1 °F 12.2 °F 86% 29.43 in 2.0 mi East 12.7 mph - N/A Snow Light Snow
5:13 AM 14.0 °F 0.5 °F 12.2 °F 93% 29.44 in 4.0 mi East 11.5 mph - N/A Snow Light Snow
5:33 AM 14.0 °F -2.0 °F 10.4 °F 86% 29.45 in 10.0 mi East 16.1 mph - N/A   Mostly Cloudy
5:53 AM 14.0 °F -1.4 °F 10.4 °F 86% 29.47 in 10.0 mi ENE 15.0 mph - N/A Snow Light Snow
6:13 AM 12.2 °F -4.3 °F 10.4 °F 92% 29.49 in 10.0 mi NE 16.1 mph - N/A   Overcast
6:34 AM 12.2 °F -5.3 °F 10.4 °F 92% 29.51 in 10.0 mi ENE 18.4 mph - N/A   Overcast
6:53 AM 12.2 °F -5.8 °F 8.6 °F 85% 29.53 in 10.0 mi NE 19.6 mph 23.0 mph N/A   Overcast
7:13 AM 12.2 °F -6.3 °F 8.6 °F 85% 29.56 in 7.0 mi NE 20.7 mph 26.5 mph N/A   Overcast
7:33 AM 10.4 °F -7.7 °F 8.6 °F 92% 29.59 in 7.0 mi NE 18.4 mph 24.2 mph N/A   Overcast
7:53 AM 12.2 °F -4.8 °F 8.6 °F 85% 29.61 in 7.0 mi NE 17.3 mph 24.2 mph N/A   Overcast
8:14 AM 12.2 °F -4.8 °F 8.6 °F 85% 29.65 in 10.0 mi NNE 17.3 mph 23.0 mph N/A   Overcast
8:33 AM 12.2 °F -5.3 °F 8.6 °F 85% 29.66 in 10.0 mi NE 18.4 mph - N/A   Overcast
8:53 AM 10.4 °F -6.6 °F 8.6 °F 92% 29.70 in 10.0 mi NNE 16.1 mph - N/A   Scattered Clouds
9:14 AM 10.4 °F -6.0 °F 8.6 °F 92% 29.73 in 10.0 mi North 15.0 mph - N/A   Scattered Clouds
9:33 AM 10.4 °F -7.2 °F 6.8 °F 85% 29.74 in 10.0 mi NNE 17.3 mph - N/A   Scattered Clouds
9:54 AM 10.4 °F -7.2 °F 6.8 °F 85% 29.77 in 10.0 mi NNE 17.3 mph - N/A   Clear
10:13 AM 12.2 °F -4.3 °F 6.8 °F 79% 29.81 in 4.0 mi North 16.1 mph - N/A   Haze
10:33 AM 12.2 °F -3.1 °F 6.8 °F 79% 29.83 in 10.0 mi North 13.8 mph - N/A   Clear
10:54 AM 12.2 °F -1.8 °F 8.6 °F 85% 29.85 in 10.0 mi North 11.5 mph 17.3 mph N/A   Clear
11:13 AM 14.0 °F 3.9 °F 8.6 °F 79% 29.86 in 10.0 mi North 6.9 mph - N/A   Clear
11:33 AM 15.8 °F 4.2 °F 8.6 °F 73% 29.87 in 10.0 mi NNW 9.2 mph - N/A   Clear
11:53 AM 15.8 °F 4.2 °F 8.6 °F 73% 29.89 in 10.0 mi NNW 9.2 mph - N/A   Clear
12:13 PM 15.8 °F 3.4 °F 8.6 °F 73% 29.90 in 10.0 mi NNW 10.4 mph - N/A   Clear
12:34 PM 17.6 °F 10.7 °F 8.6 °F 68% 29.88 in 10.0 mi NW 4.6 mph - N/A   Clear
12:53 PM 17.6 °F 7.3 °F 8.6 °F 68% 29.89 in 10.0 mi NW 8.1 mph - N/A   Clear
1:13 PM 17.6 °F 10.7 °F 10.4 °F 73% 29.88 in 10.0 mi NW 4.6 mph - N/A   Clear
1:34 PM 17.6 °F 10.7 °F 10.4 °F 73% 29.88 in 10.0 mi NW 4.6 mph - N/A   Clear
1:53 PM 17.6 °F 5.7 °F 10.4 °F 73% 29.90 in 10.0 mi WNW 10.4 mph - N/A   Clear
2:13 PM 17.6 °F 3.7 °F 10.4 °F 73% 29.91 in - WNW 13.8 mph - N/A   Clear
2:33 PM 17.6 °F 5.7 °F 10.4 °F 73% 29.91 in - WNW 10.4 mph - N/A   Clear
2:53 PM 17.6 °F 5.7 °F 10.4 °F 73% 29.91 in 10.0 mi WNW 10.4 mph - N/A   Clear
3:14 PM 17.6 °F 6.4 °F 10.4 °F 73% 29.92 in 10.0 mi West 9.2 mph - N/A   Clear
3:33 PM 15.8 °F 1.4 °F 10.4 °F 79% 29.93 in 10.0 mi West 13.8 mph - N/A   Clear
3:53 PM 14.0 °F 1.2 °F 8.6 °F 79% 29.94 in 10.0 mi West 10.4 mph - N/A   Clear
4:14 PM 12.2 °F -1.0 °F 6.8 °F 79% 29.94 in 10.0 mi West 10.4 mph - N/A   Clear
4:33 PM 10.4 °F -6.0 °F 8.6 °F 92% 29.95 in 10.0 mi West 15.0 mph - N/A   Clear
4:53 PM 10.4 °F -6.0 °F 8.6 °F 92% 29.94 in 10.0 mi West 15.0 mph 19.6 mph N/A   Clear
5:13 PM 10.4 °F -3.3 °F 8.6 °F 92% 29.93 in 10.0 mi West 10.4 mph - N/A   Clear
5:33 PM 10.4 °F -2.4 °F 8.6 °F 92% 29.92 in 10.0 mi West 9.2 mph - N/A   Clear
5:53 PM 10.4 °F -3.3 °F 8.6 °F 92% 29.92 in 10.0 mi West 10.4 mph - N/A   Clear
6:13 PM 10.4 °F -4.1 °F 8.6 °F 92% 29.91 in 10.0 mi West 11.5 mph - N/A   Clear
6:34 PM 10.4 °F -0.4 °F 8.6 °F 92% 29.90 in 10.0 mi West 6.9 mph - N/A   Scattered Clouds
6:53 PM 10.4 °F -2.4 °F 8.6 °F 92% 29.89 in 10.0 mi WSW 9.2 mph - N/A   Mostly Cloudy
7:13 PM 12.2 °F -0.2 °F 10.4 °F 92% 29.88 in 10.0 mi WSW 9.2 mph - N/A   Overcast
7:33 PM 12.2 °F -3.1 °F 10.4 °F 92% 29.87 in 10.0 mi SW 13.8 mph - N/A   Mostly Cloudy
7:53 PM 14.0 °F 1.2 °F 12.2 °F 93% 29.86 in 10.0 mi SW 10.4 mph - N/A   Overcast
8:14 PM 14.0 °F -1.4 °F 12.2 °F 93% 29.84 in 10.0 mi SW 15.0 mph - N/A   Overcast
8:33 PM 15.8 °F 4.2 °F 12.2 °F 86% 29.80 in 10.0 mi SW 9.2 mph - N/A   Overcast
8:53 PM 15.8 °F 1.4 °F 14.0 °F 93% 29.77 in 10.0 mi SSW 13.8 mph - N/A   Mostly Cloudy
9:13 PM 17.6 °F 5.0 °F 15.8 °F 93% 29.77 in 10.0 mi SW 11.5 mph - N/A   Scattered Clouds
9:33 PM 17.6 °F 5.0 °F 15.8 °F 93% 29.75 in 10.0 mi WSW 11.5 mph - N/A   Clear
9:53 PM 19.4 °F 6.0 °F 17.6 °F 93% 29.73 in 10.0 mi WSW 13.8 mph - N/A   Clear
10:13 PM 19.4 °F 5.5 °F 17.6 °F 93% 29.71 in 10.0 mi WSW 15.0 mph - N/A   Clear
10:33 PM 21.2 °F 9.5 °F 17.6 °F 86% 29.71 in 10.0 mi SW 11.5 mph - N/A   Clear
10:54 PM 21.2 °F 6.0 °F 19.4 °F 93% 29.69 in 10.0 mi SW 19.6 mph - N/A   Clear
11:13 PM 23.0 °F 9.2 °F 21.2 °F 93% 29.68 in 10.0 mi SW 17.3 mph - N/A   Clear
11:33 PM 23.0 °F 8.7 °F 21.2 °F 93% 29.66 in 10.0 mi SW 18.4 mph - N/A   Clear
11:54 PM 24.8 °F 10.0 °F 21.2 °F 86% 29.63 in 10.0 mi SW 21.9 mph 25.3 mph N/A   Clear